User: anonymous   Login
Location: Squamish
(49.7000°N, 123.1500°W)
Time: 17:24:55
(UTC-08:00)
Language:

NOAA 19 - Orbit

View from above orbital plane
View from above orbital plane
View from above satellite
View from above satellite

Ground track
Ground track

The orbit data is extracted from the following two-line orbital elements,

1 33591U 09005A   16039.55964930  .00000136  00000-0  98742-4 0  9999
2 33591  99.0235 355.3893 0013250 221.4911 138.5255 14.12037085360849
Epoch (UTC): 08 February 2016 13:25:53
Eccentricity: 0.0013250
inclination: 99.0235°
perigee height: 843 km
apogee height: 862 km
right ascension of ascending node: 355.3893°
argument of perigee: 221.4911°
revolutions per day: 14.12037085
mean anomaly at epoch: 138.5255°
orbit number at epoch: 36084

The dashed part of the orbit path shows where the satellite is in the earth's shadow,  

DLR